| time (UTC) | temp F | wind direction | speed MPH | gust MPH | rain 1hr in | rain 24hr in | rain mn in | humidity % | barometer mb |
| 20260503001803 | 75 | 318 | 3.0 | 10.0 | 0.00 | 0.00 | 0.00 | 57 | 1009.0 |
| 20260503000903 | 75 | 331 | 3.0 | 10.0 | 0.00 | 0.00 | 0.00 | 55 | 1009.1 |
| 20260503000024 | 75 | 325 | 3.0 | 11.0 | 0.00 | 0.00 | 0.00 | 55 | 1009.0 |
| 20260502235403 | 75 | 325 | 3.0 | 8.0 | 0.00 | 0.00 | 0.00 | 54 | 1009.1 |
| 20260502234503 | 75 | 326 | 4.0 | 8.0 | 0.00 | 0.00 | 0.00 | 53 | 1009.1 |
| 20260502233603 | 75 | 325 | 3.0 | 8.0 | 0.00 | 0.00 | 0.00 | 55 | 1009.2 |
| 20260502232703 | 74 | 324 | 3.0 | 7.0 | 0.00 | 0.00 | 0.00 | 57 | 1009.2 |
| 20260502231803 | 73 | 320 | 3.0 | 8.0 | 0.00 | 0.00 | 0.00 | 56 | 1009.3 |
| 20260502230924 | 73 | 315 | 3.0 | 8.0 | 0.00 | 0.00 | 0.00 | 56 | 1009.5 |
| 20260502230003 | 73 | 280 | 2.0 | 11.0 | 0.00 | 0.00 | 0.00 | 56 | 1009.6 |
| 20260502225403 | 73 | 283 | 3.0 | 11.0 | 0.00 | 0.00 | 0.00 | 56 | 1009.7 |
| 20260502224503 | 72 | 289 | 2.0 | 9.0 | 0.00 | 0.00 | 0.00 | 58 | 1010.0 |
| 20260502223603 | 72 | 277 | 2.0 | 7.0 | 0.00 | 0.00 | 0.00 | 57 | 1010.2 |
| 20260502222703 | 71 | 265 | 3.0 | 9.0 | 0.00 | 0.00 | 0.00 | 57 | 1010.3 |
| 20260502221803 | 71 | 270 | 2.0 | 10.0 | 0.00 | 0.00 | 0.00 | 59 | 1010.4 |
| 20260502220903 | 71 | 278 | 3.0 | 10.0 | 0.00 | 0.00 | 0.00 | 59 | 1010.5 |
| 20260502220003 | 71 | 293 | 2.0 | 8.0 | 0.00 | 0.00 | 0.00 | 58 | 1010.6 |
| 20260502215403 | 71 | 297 | 3.0 | 8.0 | 0.00 | 0.00 | 0.00 | 59 | 1010.8 |
| 20260502214503 | 70 | 270 | 3.0 | 10.0 | 0.00 | 0.00 | 0.00 | 60 | 1010.8 |
| 20260502213603 | 71 | 282 | 2.0 | 7.0 | 0.00 | 0.00 | 0.00 | 59 | 1010.9 |
| 20260502212703 | 71 | 280 | 3.0 | 9.0 | 0.00 | 0.00 | 0.00 | 60 | 1011.1 |
| 20260502211803 | 72 | 292 | 2.0 | 8.0 | 0.00 | 0.00 | 0.00 | 59 | 1011.3 |
| 20260502210924 | 72 | 299 | 3.0 | 7.0 | 0.00 | 0.00 | 0.00 | 58 | 1011.3 |
| 20260502210024 | 72 | 283 | 3.0 | 11.0 | 0.00 | 0.00 | 0.00 | 58 | 1011.4 |
| 20260502205424 | 72 | 274 | 3.0 | 10.0 | 0.00 | 0.00 | 0.00 | 59 | 1011.3 |
| 20260502204524 | 72 | 278 | 3.0 | 12.0 | 0.00 | 0.00 | 0.00 | 58 | 1011.4 |
| 20260502203624 | 72 | 293 | 3.0 | 9.0 | 0.00 | 0.00 | 0.00 | 58 | 1011.4 |
| 20260502202703 | 72 | 282 | 3.0 | 9.0 | 0.00 | 0.00 | 0.00 | 59 | 1011.7 |
| 20260502201803 | 71 | 315 | 3.0 | 11.0 | 0.00 | 0.00 | 0.00 | 59 | 1011.8 |
| 20260502200903 | 71 | 301 | 3.0 | 10.0 | 0.00 | 0.00 | 0.00 | 61 | 1011.7 |
| 20260502200003 | 70 | 292 | 4.0 | 10.0 | 0.00 | 0.00 | 0.00 | 61 | 1011.8 |
| 20260502195403 | 70 | 313 | 3.0 | 13.0 | 0.00 | 0.00 | 0.00 | 63 | 1011.9 |
| 20260502194503 | 70 | 327 | 3.0 | 13.0 | 0.00 | 0.00 | 0.00 | 64 | 1011.9 |
| 20260502193603 | 69 | 290 | 3.0 | 10.0 | 0.00 | 0.00 | 0.00 | 64 | 1012.1 |
| 20260502192703 | 69 | 304 | 3.0 | 10.0 | 0.00 | 0.00 | 0.00 | 63 | 1012.1 |
| 20260502191803 | 70 | 302 | 3.0 | 9.0 | 0.00 | 0.00 | 0.00 | 63 | 1012.2 |
| 20260502190903 | 71 | 327 | 4.0 | 13.0 | 0.00 | 0.00 | 0.00 | 62 | 1012.3 |
| 20260502190003 | 71 | 322 | 3.0 | 13.0 | 0.00 | 0.00 | 0.00 | 60 | 1012.2 |
| 20260502185403 | 71 | 320 | 3.0 | 14.0 | 0.00 | 0.00 | 0.00 | 60 | 1012.2 |
| 20260502184503 | 72 | 331 | 4.0 | 14.0 | 0.00 | 0.00 | 0.00 | 61 | 1012.2 |
| 20260502183603 | 71 | 315 | 3.0 | 9.0 | 0.00 | 0.00 | 0.00 | 61 | 1012.1 |
| 20260502182703 | 70 | 338 | 4.0 | 11.0 | 0.00 | 0.00 | 0.00 | 64 | 1012.1 |
| 20260502181803 | 69 | 317 | 3.0 | 11.0 | 0.00 | 0.00 | 0.00 | 63 | 1012.1 |
| 20260502180924 | 69 | 315 | 3.0 | 12.0 | 0.00 | 0.00 | 0.00 | 65 | 1012.0 |
| 20260502163603 | 63 | 299 | 3.0 | 12.0 | 0.00 | 0.00 | 0.00 | 75 | 1011.9 |
| 20260502162703 | 64 | 321 | 3.0 | 10.0 | 0.00 | 0.00 | 0.00 | 76 | 1011.7 |
| 20260502161803 | 63 | 335 | 2.0 | 6.0 | 0.00 | 0.00 | 0.00 | 77 | 1011.7 |
| 20260502160903 | 62 | 329 | 2.0 | 9.0 | 0.00 | 0.00 | 0.00 | 78 | 1011.6 |
| 20260502151803 | 59 | 320 | 2.0 | 5.0 | 0.00 | 0.00 | 0.00 | 86 | 1011.5 |
| 20260502150924 | 58 | 314 | 2.0 | 4.0 | 0.00 | 0.00 | 0.00 | 87 | 1011.5 |
| 20260502123624 | 54 | 326 | 1.0 | 2.0 | 0.00 | 0.00 | 0.00 | 88 | 1010.4 |
| 20260502122724 | 55 | 321 | 1.0 | 2.0 | 0.00 | 0.00 | 0.00 | 88 | 1010.4 |
| 20260502121803 | 55 | 327 | 1.0 | 3.0 | 0.00 | 0.00 | 0.00 | 88 | 1010.4 |
| 20260502120903 | 55 | 322 | 1.0 | 3.0 | 0.00 | 0.00 | 0.00 | 88 | 1010.4 |
| 20260502115403 | 55 | 317 | 1.0 | 4.0 | 0.00 | 0.00 | 0.00 | 88 | 1010.4 |
| 20260502113603 | 55 | 339 | 1.0 | 3.0 | 0.00 | 0.00 | 0.00 | 88 | 1010.7 |
| 20260502112703 | 55 | 329 | 2.0 | 4.0 | 0.00 | 0.00 | 0.00 | 88 | 1010.7 |
| 20260502111824 | 55 | 317 | 1.0 | 3.0 | 0.00 | 0.00 | 0.00 | 88 | 1010.6 |
| 20260502110924 | 54 | 297 | 1.0 | 3.0 | 0.00 | 0.00 | 0.00 | 88 | 1010.6 |
| 20260502110003 | 54 | 318 | 1.0 | 2.0 | 0.00 | 0.00 | 0.00 | 87 | 1010.7 |
| 20260502105403 | 54 | 319 | 1.0 | 2.0 | 0.00 | 0.00 | 0.00 | 87 | 1010.7 |
| 20260502104503 | 55 | 314 | 1.0 | 2.0 | 0.00 | 0.00 | 0.00 | 87 | 1010.7 |
| 20260502103603 | 55 | 330 | 1.0 | 3.0 | 0.00 | 0.00 | 0.00 | 87 | 1010.8 |
| 20260502102703 | 55 | 320 | 1.0 | 2.0 | 0.00 | 0.00 | 0.00 | 86 | 1010.8 |
| 20260502101824 | 55 | 334 | 1.0 | 2.0 | 0.00 | 0.00 | 0.00 | 86 | 1010.7 |
| 20260502100903 | 55 | 318 | 1.0 | 3.0 | 0.00 | 0.00 | 0.00 | 86 | 1010.8 |
| 20260502090903 | 56 | 319 | 1.0 | 2.0 | 0.00 | 0.00 | 0.00 | 83 | 1011.0 |
| 20260502070903 | 60 | 298 | 1.0 | 3.0 | 0.00 | 0.00 | 0.00 | 75 | 1011.1 |
| 20260502070003 | 60 | 299 | 1.0 | 4.0 | 0.00 | 0.00 | 0.00 | 75 | 1011.1 |
| 20260502065403 | 61 | 309 | 1.0 | 3.0 | 0.00 | 0.00 | 0.00 | 74 | 1011.0 |
| 20260502064503 | 61 | 325 | 1.0 | 4.0 | 0.00 | 0.00 | 0.00 | 74 | 1011.0 |
| 20260502063603 | 61 | 322 | 1.0 | 4.0 | 0.00 | 0.00 | 0.00 | 73 | 1011.0 |
| 20260502062703 | 62 | 293 | 1.0 | 4.0 | 0.00 | 0.00 | 0.00 | 72 | 1011.0 |
| 20260502061803 | 62 | 315 | 1.0 | 8.0 | 0.00 | 0.00 | 0.00 | 72 | 1011.0 |
| 20260502060903 | 62 | 312 | 1.0 | 4.0 | 0.00 | 0.00 | 0.00 | 72 | 1011.0 |
| 20260502060003 | 62 | 309 | 1.0 | 3.0 | 0.00 | 0.00 | 0.00 | 71 | 1011.2 |
| 20260502055425 | 63 | 298 | 1.0 | 3.0 | 0.00 | 0.00 | 0.00 | 71 | 1011.2 |
| 20260502054503 | 63 | 295 | 1.0 | 4.0 | 0.00 | 0.00 | 0.00 | 70 | 1011.1 |
| 20260502053603 | 63 | 283 | 1.0 | 3.0 | 0.00 | 0.00 | 0.00 | 70 | 1011.1 |
| 20260502052703 | 63 | 306 | 1.0 | 3.0 | 0.00 | 0.00 | 0.00 | 70 | 1011.0 |
| 20260502051824 | 64 | 309 | 1.0 | 3.0 | 0.00 | 0.00 | 0.00 | 70 | 1011.2 |
| 20260502050924 | 64 | 346 | 1.0 | 3.0 | 0.00 | 0.00 | 0.00 | 69 | 1011.2 |
| 20260502050024 | 65 | 304 | 1.0 | 3.0 | 0.00 | 0.00 | 0.00 | 68 | 1011.3 |
| 20260502045424 | 65 | 283 | 1.0 | 3.0 | 0.00 | 0.00 | 0.00 | 68 | 1011.2 |
| 20260502044524 | 65 | 286 | 1.0 | 3.0 | 0.00 | 0.00 | 0.00 | 67 | 1011.2 |
| 20260502043624 | 66 | 282 | 1.0 | 3.0 | 0.00 | 0.00 | 0.00 | 65 | 1011.1 |
| 20260502042724 | 67 | 286 | 1.0 | 3.0 | 0.00 | 0.00 | 0.00 | 64 | 1010.9 |
| 20260502041824 | 67 | 291 | 1.0 | 4.0 | 0.00 | 0.00 | 0.00 | 63 | 1011.0 |
| 20260502040924 | 68 | 315 | 1.0 | 4.0 | 0.00 | 0.00 | 0.00 | 62 | 1010.9 |
| 20260502040024 | 68 | 316 | 2.0 | 4.0 | 0.00 | 0.00 | 0.00 | 61 | 1010.7 |
| 20260502035403 | 69 | 308 | 1.0 | 4.0 | 0.00 | 0.00 | 0.00 | 59 | 1010.5 |
| 20260502034503 | 70 | 319 | 1.0 | 4.0 | 0.00 | 0.00 | 0.00 | 58 | 1010.5 |
| 20260502033603 | 70 | 315 | 2.0 | 4.0 | 0.00 | 0.00 | 0.00 | 56 | 1010.4 |
| 20260502032703 | 71 | 317 | 2.0 | 6.0 | 0.00 | 0.00 | 0.00 | 55 | 1010.2 |
| 20260502031805 | 72 | 319 | 1.0 | 4.0 | 0.00 | 0.00 | 0.00 | 52 | 1010.2 |
| 20260502030924 | 73 | 318 | 1.0 | 4.0 | 0.00 | 0.00 | 0.00 | 51 | 1010.1 |
| 20260502030024 | 74 | 310 | 1.0 | 5.0 | 0.00 | 0.00 | 0.00 | 49 | 1009.9 |
| 20260502025424 | 76 | 328 | 1.0 | 5.0 | 0.00 | 0.00 | 0.00 | 49 | 1009.9 |
| 20260502024524 | 77 | 306 | 1.0 | 3.0 | 0.00 | 0.00 | 0.00 | 47 | 1009.9 |
| 20260502023624 | 78 | 319 | 1.0 | 4.0 | 0.00 | 0.00 | 0.00 | 45 | 1009.9 |
| 20260502022703 | 79 | 323 | 2.0 | 5.0 | 0.00 | 0.00 | 0.00 | 45 | 1009.8 |
| 20260502021803 | 80 | 294 | 1.0 | 4.0 | 0.00 | 0.00 | 0.00 | 41 | 1009.8 |
| 20260502020903 | 82 | 296 | 2.0 | 4.0 | 0.00 | 0.00 | 0.00 | 39 | 1009.7 |
| 20260502020003 | 83 | 328 | 3.0 | 6.0 | 0.00 | 0.00 | 0.00 | 46 | 1009.7 |
| 20260502015405 | 83 | 330 | 3.0 | 6.0 | 0.00 | 0.00 | 0.00 | 47 | 1009.7 |
| 20260502014503 | 84 | 321 | 2.0 | 6.0 | 0.00 | 0.00 | 0.00 | 47 | 1009.6 |
| 20260502013603 | 84 | 312 | 2.0 | 8.0 | 0.00 | 0.00 | 0.00 | 38 | 1009.6 |
| 20260502012703 | 85 | 311 | 2.0 | 6.0 | 0.00 | 0.00 | 0.00 | 48 | 1009.5 |
| 20260502011803 | 85 | 308 | 3.0 | 5.0 | 0.00 | 0.00 | 0.00 | 48 | 1009.5 |
| 20260502010903 | 85 | 309 | 3.0 | 5.0 | 0.00 | 0.00 | 0.00 | 47 | 1009.5 |
| 20260502010003 | 85 | 319 | 3.0 | 6.0 | 0.00 | 0.00 | 0.00 | 47 | 1009.6 |
| 20260502005403 | 85 | 311 | 3.0 | 9.0 | 0.00 | 0.00 | 0.00 | 47 | 1009.6 |
| 20260502004503 | 84 | 347 | 3.0 | 8.0 | 0.00 | 0.00 | 0.00 | 46 | 1009.6 |
| 20260502003603 | 84 | 336 | 3.0 | 8.0 | 0.00 | 0.00 | 0.00 | 46 | 1009.7 |
| 20260502002703 | 85 | 338 | 3.0 | 8.0 | 0.00 | 0.00 | 0.00 | 47 | 1009.7 |